Regional Weather Roundup
Issued by NWS

Home | Current Version | Previous Version | Text Only | Print | Product List | Glossary On
Versions: 1 2 3 4 5 6 7 8 9 10 11 12 13 14 15 16 17 18 19 20 21 22 23 24 25 26 27 28 29 30 31 32 33 34 35 36 37 38 39 40 41 42 43 44 45 46 47 48 49 50
000
ASUS45 KBOU 261407
RWRCO

WEATHER ROUNDUP FOR COLORADO
NATIONAL WEATHER SERVICE DENVER/BOULDER CO
800 AM MDT TUE JUL 26 2016

NOTE: "FAIR" INDICATES FEW OR NO CLOUDS BELOW 12000 FEET WITH NO
SIGNIFICANT WEATHER AND/OR OBSTRUCTIONS TO VISIBILITY.

COZ001>005-013-030-031-261500-
...NORTHWEST COLORADO...

CITY           SKY/WX    TMP DP  RH WIND       PRES   REMARKS
CRAIG          FAIR      62  42  47 CALM      30.29R
HAYDEN         FAIR      64  37  36 E9        30.31R
MEEKER         FAIR      58  45  62 CALM      30.31R
MOUNT WERNER   NOT AVBL
STEAMBOAT SPGS FAIR      59  41  51 CALM      30.34S
WALDEN         FAIR      54  36  50 SE7       30.43S
$$

COZ006>008-011-261500-
...WEST CENTRAL VALLEYS...

CITY           SKY/WX    TMP DP  RH WIND       PRES   REMARKS
GRAND JUNCTION FAIR      77  44  30 E12       30.17R
MONTROSE       FAIR      71  44  37 SE7       30.27R
EAGLE          SUNNY     61  39  44 CALM      30.37R
RIFLE          FAIR      69  44  40 E5        30.25R
DELTA          FAIR      73  44  34 NE6       30.23R
NUCLA          FAIR     N/A N/A N/A E3        30.31S
$$

COZ017>023-064>068-261500-
...SOUTHWEST COLORADO...

CITY           SKY/WX    TMP DP  RH WIND       PRES   REMARKS
DURANGO        FAIR      68  51  54 E5        30.35S
CORTEZ         FAIR      69  54  58 W3        30.27R
PAGOSA SPRINGS FAIR      63  46  55 CALM      30.44R
TELLURIDE      FAIR      61  42  50 CALM      30.53S
WOLF CREEK PAS FAIR      48  41  76 S6        30.74S
$$

COZ009-010-012-014-032>034-037-058>063-261500-
...CENTRAL COLORADO...

CITY           SKY/WX    TMP DP  RH WIND       PRES   REMARKS
ASPEN          FAIR      61  43  51 CALM      30.40S
BUENA VISTA    FAIR      60  40  47 NW13      30.43F
COPPER MTN     PTSUNNY   59  34  38 CALM      30.74S
BERTHOUD PASS  FAIR      48  34  57 NW10      30.77R
COTTONWOOD PAS FAIR      63  32  31 CALM      30.56F
GUNNISON       FAIR      55  43  62 NE3       30.47S
KREMMLING      FAIR      55  41  58 CALM      30.42R
LEADVILLE      FAIR      52  39  61 CALM      30.57S
MONARCH PASS   FAIR      50  36  57 SW8       30.82S
SALIDA         FAIR      64  43  47 NW12      30.48S
SUNLIGHT       FAIR      61  36  39 CALM      30.66S
WILKERSON PASS FAIR      52  34  50 W7        30.69S
$$

COZ069>075-261500-
...SAN LUIS VALLEY/SANGRE DE CRISTO MOUNTAINS...

CITY           SKY/WX    TMP DP  RH WIND       PRES   REMARKS
ALAMOSA        FAIR      61  48  62 SE7       30.41R
LA VETA PASS   FAIR      54  43  66 W5        30.58R
SAGUACHE       FAIR      64  43  45 NW9       30.43S
$$

COZ035-036-038>040-261500-
...NORTHERN COLORADO FRONT RANGE...

CITY           SKY/WX    TMP DP  RH WIND       PRES   REMARKS
DENVER INTL AP FAIR      72  52  49 W6        30.16R
DMNS CITY PARK   N/A     73  53  50 S5        30.17R
AURORA         MOSUNNY   73  48  41 SW8       30.19R
FRONT RANGE AP PTSUNNY   75  48  38 SW9       30.18R
ERIE MUNI ARPT FAIR      71  52  51 CALM      30.15R
BOULDER MUN AP FAIR      68  52  56 CALM      30.15R
CENTENNIAL     PTSUNNY   74  43  32 SW13      30.20R
BROOMFIELD     PTSUNNY   70  50  49 CALM      30.18S
LONGMONT       FAIR      67  50  53 CALM      30.16R HAZE
$$

COZ041-046-047-076>085-087-088-261500-
...PIKES PEAK/PALMER DIVIDE AND SOUTHERN FOOTHILLS...

CITY           SKY/WX    TMP DP  RH WIND       PRES   REMARKS
COLO. SPRINGS  FAIR      63  53  70 SE3       30.28R
A. F. ACADEMY  FAIR      66  49  54 S13       30.29R
SCHRIEVER AFB  NOT AVBL
ELLICOTT       FAIR     N/A N/A N/A SE9       30.25R
FALCON         NOT AVBL
FORT CARSON    FAIR      64  55  72 N3        30.25R
LIMON          NOT AVBL
MONUMENT HILL  FAIR      68  46  45 SW9       30.32R
TRINIDAD       NOT AVBL
$$

COZ042>045-048>051-090-091-261500-
...NORTHEAST COLORADO...

CITY           SKY/WX    TMP DP  RH WIND       PRES   REMARKS
GREELEY ARPT   FAIR      63  55  77 CALM      30.14R
AKRON          FAIR      66  61  84 S15       30.14S
BURLINGTON     FAIR      70  64  81 S15       30.16S
WRAY           NOT AVBL
STERLING       FAIR      70  64  83 S12       30.08F
HOLYOKE        CLOUDY    70  64  83 W14G21    30.12S
FORT MORGAN    FAIR      66  54  63 SE6       30.12R
$$

COZ086-089-092>099-261500-
...SOUTHEAST COLORADO...

CITY           SKY/WX    TMP DP  RH WIND       PRES   REMARKS
PUEBLO         FAIR      65  58  78 CALM      30.17R
LA JUNTA       FAIR      72  56  57 CALM      30.14S
LAMAR          FAIR      74  65  73 SE12      30.11S
SPRINGFIELD      N/A     70  64  81 SE7       30.17F
$$



USA.gov is the U.S. government's official web portal to all federal, state and local government web resources and services.